Regional Weather Roundup
Issued by NWS

Home | Current Version | Previous Version | Graphics & Text | Print | Product List | Glossary On
Versions: 1 2 3 4 5 6 7 8 9 10 11 12 13 14 15 16 17 18 19 20 21 22 23 24 25 26 27 28 29 30 31 32 33 34 35 36 37 38 39 40 41 42 43 44 45 46 47 48 49 50
000
ASUS43 KMPX 231501
RWRMN
WEATHER ROUNDUP FOR MINNESOTA
NATIONAL WEATHER SERVICE TWIN CITIES/CHANHASSEN MN
1000 AM CDT WED AUG 23 2017


NOTE: "FAIR" INDICATES FEW OR NO CLOUDS BELOW 12,000 FEET WITH NO
SIGNIFICANT WEATHER AND/OR OBSTRUCTIONS TO VISIBILITY. N/A MEANS
CURRENT SKY AND/OR WEATHER CONDITIONS ARE NOT AVAILABLE.

MNZ060>063-068>070-231600-
   Twin Cities Metro

CITY           SKY/WX    TMP DP  RH WIND       PRES   REMARKS
TWIN CITIES    SUNNY     67  53  61 N5        30.11S
ST PAUL        SUNNY     65  55  70 NW6       30.11F
CRYSTAL        SUNNY     66  51  58 N3        30.10S
BLAINE         SUNNY     64  54  68 NW6       30.11S
LAKEVILLE      SUNNY     64  54  68 W5        30.11S
EDEN PRAIRIE   SUNNY     68  54  60 N6        30.10S
SOUTH ST PAUL  SUNNY     65  52  62 CALM      30.11S
LAKE ELMO      FAIR      64  55  72 NW6       30.12S
$$
MNZ001>005-007-008-013>017-022>024-027-028-231600-
   Northwest Minnesota

CITY           SKY/WX    TMP DP  RH WIND       PRES   REMARKS
BEMIDJI        CLOUDY    57  52  82 CALM      30.13S
HALLOCK        CLOUDY    57  54  88 E5        30.11S
ROSEAU           N/A     54  48  82 CALM      30.13S
WARROAD        CLOUDY    54  50  87 CALM      30.13R
CROOKSTON      CLOUDY    61  55  82 SE5       30.11F
FOSSTON          N/A     55  55 100 CALM      30.13F FOG
DETROIT LAKES  SUNNY     63  52  67 CALM      30.13S
MOORHEAD       SUNNY     63  54  72 CALM      30.12S
PARK RAPIDS    CLOUDY    63  53  70 N7        30.12F
MAHNOMEN       CLOUDY    57  54  88 CALM      30.12S
$$
MNZ006-009>011-018-025>026-231600-
   North Central Minnesota

CITY           SKY/WX    TMP DP  RH WIND       PRES   REMARKS
BAUDETTE       CLOUDY    59  53  80 CALM      30.12S
FLAG ISLAND    PTSUNNY   59  50  72 CALM      30.11R
INTL FALLS     PTSUNNY   59  48  67 NW6       30.12R
WASKISH        PTSUNNY   59  52  77 W3        30.12S
BIG FORK       SUNNY     59  52  77 CALM      30.12S
LONGVILLE      PTSUNNY   63  54  72 N5        30.12S
GRAND RAPIDS   MOSUNNY   59  51  75 NW8       30.13S
CRANE LAKE     MOSUNNY   55  45  67 NE3       30.13R
ORR            PTSUNNY   55  48  76 CALM      30.10R
COOK           PTSUNNY   57  48  72 CALM      30.12R
WALKER         PTSUNNY   59  54  82 CALM      30.12F
$$
MNZ012-019>021-037-231600-
   Northeast Minnesota

CITY           SKY/WX    TMP DP  RH WIND       PRES   REMARKS
DULUTH         MOSUNNY   59  51  75 N8        30.09R
ELY            PTSUNNY   55  45  67 N3        30.10R
HIBBING        MOSUNNY   58  51  78 N9        30.11R
EVELETH        MOSUNNY   58  44  59 N5        30.11S
DULUTH HARBOR  PTSUNNY   61  54  77 NW5       30.10R
GRAND MARAIS     N/A     61  45  55 VRB6      30.05R
$$
MNZ029>031-032-039>041-046>048-054>057-064-231600-
   West Central Minnesota

CITY           SKY/WX    TMP DP  RH WIND       PRES   REMARKS
FERGUS FALLS   SUNNY     64  54  68 CALM      30.11F
WHEATON        SUNNY     64  50  59 CALM      30.13S
MORRIS         SUNNY     64  54  68 CALM      30.12S
ALEXANDRIA     SUNNY     67  52  58 N7        30.14S
ELBOW LAKE     FAIR      63  56  78 CALM      30.13S
WADENA         SUNNY     63  52  67 N3        30.12S
GLENWOOD       SUNNY     66  52  59 N5        30.13S
APPLETON       SUNNY     66  54  63 CALM      30.12S
BENSON         SUNNY     66  50  55 CALM      30.14S
ORTONVILLE     SUNNY     66  52  59 MISG      30.12S
MADISON        SUNNY     66  55  68 CALM      30.13S
WILLMAR        FAIR      64  55  72 CALM      30.14S
$$
MNZ033>034-036-042>043-049>051-058-059-231600-
   Central Minnesota

CITY           SKY/WX    TMP DP  RH WIND       PRES   REMARKS
ST CLOUD       SUNNY     64  55  72 N6        30.12S
SAUK CENTRE    FAIR      64  53  67 N3        30.13S
PAYNESVILLE    SUNNY     67  54  62 NW5       30.13S
AITKIN         SUNNY     61  52  72 NW3       30.11S
PINE RIVER     MOSUNNY   59  52  77 N5        30.15S
BRAINERD       MOSUNNY   63  53  70 N7        30.12S
STAPLES        SUNNY     61  52  72 CALM      30.13S
LONG PRAIRIE   FAIR      63  52  67 NW5       30.13F
LITTLE FALLS   SUNNY     61  50  67 CALM      30.13S
LITCHFIELD     SUNNY     70  55  60 N5        30.12S
BUFFALO        SUNNY     65  52  62 N6        30.13S
MAPLE LAKE     SUNNY     65  55  70 NW5       30.13S
HUTCHINSON     CLOUDY    65  56  71 CALM      30.13S
$$
MNZ037-044-045-052-053-231600-
   East Central Minnesota

CITY           SKY/WX    TMP DP  RH WIND       PRES   REMARKS
PRINCETON      SUNNY     64  55  72 CALM      30.12S
MORA           SUNNY     63  52  67 N6        30.13S
CAMBRIDGE      SUNNY     66  52  59 N6        30.11F
RUSH CITY      SUNNY     63  51  66 NW6       30.11S
MOOSE LAKE     SUNNY     61  52  72 NW6       30.09S
HINCKLEY       FAIR      63  54  72 NW5       30.11S
CLOQUET        SUNNY     59  52  77 NW9       30.10S
MCGREGOR       SUNNY     61  52  72 N6        30.12S
$$
MNZ071>073-080-081-089-090-097-098-231600-
   Southwest Minnesota

CITY           SKY/WX    TMP DP  RH WIND       PRES   REMARKS
MONTEVIDEO     SUNNY     70  61  73 CALM      30.13S
GRANITE FALLS  SUNNY     65  55  69 SW3       30.15S
CANBY          SUNNY     70  53  53 CALM      30.14S
REDWOOD FALLS  SUNNY     64  51  62 CALM      30.13S
OLIVIA         SUNNY     63  54  72 CALM      30.12S
PIPESTONE      MOSUNNY   66  54  63 SW3       30.15S
WINDOM         SUNNY     68  54  60 W3        30.15S
WORTHINGTON    SUNNY     67  54  63 W5        30.16F
JACKSON        SUNNY     66  52  59 CALM      30.15F
TRACY          SUNNY     69  56  63 SW6       30.14F
SLAYTON        SUNNY     66  50  56 CALM      30.16S
$$
MNZ065>067-074>077-082>085-091>093-231600-
   South Central Minnesota

CITY           SKY/WX    TMP DP  RH WIND       PRES   REMARKS
MANKATO        SUNNY     63  54  72 CALM      30.13S
NEW ULM        SUNNY     63  55  77 W3        30.13S
ST JAMES       SUNNY     64  52  63 W6        30.15S
FAIRMONT       SUNNY     68  51  54 NW9       30.14F
GLENCOE        SUNNY     65  59  81 N5        30.12S
FARIBAULT      SUNNY     64  54  68 NW3       30.12S
OWATONNA       SUNNY     64  55  72 W5        30.13R
WASECA         SUNNY     63  54  72 CALM      30.14S
ALBERT LEA     SUNNY     66  55  68 NW3       30.13S
$$
MNZ078>079-086>088-094>096-231600-
   Southeast Minnesota

CITY           SKY/WX    TMP DP  RH WIND       PRES   REMARKS
ROCHESTER      SUNNY     64  55  72 NW9       30.12F
RED WING       SUNNY     64  54  68 CALM      30.09F
STANTON        SUNNY     64  54  69 N3        30.10S
DODGE CENTER   SUNNY     64  54  68 NW5       30.12S
WINONA         SUNNY     64  54  68 N6        30.10F
AUSTIN         SUNNY     64  54  68 NW6       30.12S
PRESTON        SUNNY     63  52  68 NW8       30.12S
$$
ABBREVIATIONS USED IN REMARKS
   TC - TEMPERATURES IN CELSIUS
  WCI - WIND CHILL INDEX
   HX - HEAT INDEX
  VSB - VISIBILITY
$$




USA.gov is the U.S. government's official web portal to all federal, state and local government web resources and services.